CZ-2C R/B               
1 43521U 18054D   24109.47945232  .00025067  00000+0  89099-3 0  9992
2 43521  35.1493 133.8756 0060501 308.9122  50.6212 15.26325968321731
SAOCOM 1A               
1 43641U 18076A   24110.14026345  .00001521  00000+0  19755-3 0  9991
2 43641  97.8896 297.2182 0001425  90.4737 269.6640 14.82171479299221
H-2A R/B                
1 43682U 18084L   24109.68734962  .00015813  00000+0  86834-3 0  9994
2 43682  98.8526 187.5083 0045908 207.1205 152.7624 15.13328380300495
SAOCOM 1B               
1 46265U 20059A   24110.17151685  .00001562  00000+0  20269-3 0  9996
2 46265  97.8894 296.3417 0001373  91.6097 268.5273 14.82156226196622
CSS (TIANHE)            
1 48274U 21035A   24110.20161506  .00028536  00000+0  29237-3 0  9994
2 48274  41.4679  83.4397 0006191  31.5286 328.5925 15.64308400169869
COSMOS 2550             
1 48865U 21056A   24109.68643846  .00013472  00000+0  41451-3 0  9990
2 48865  67.1404 328.3029 0008458 270.4267  89.5918 15.33834813157647
2022-019U               
1 51842U 22019U   24110.19652490  .00128147  00000+0  14319-2 0  9990
2 51842  97.5099 212.7948 0029741 308.5332  51.3260 15.61786476119864
CZ-2C R/B               
1 52794U 22058K   24109.35444457  .00018812  00000+0  76229-3 0  9994
2 52794  50.1676 174.2598 0084062 248.4525 110.7456 15.21413116104004
CZ-2C R/B               
1 53131U 22082D   24109.82859302  .00641837  19323-3  11164-2 0  9995
2 53131  97.3100 142.1382 0012960 178.0656 182.0676 16.02086090 99715
XRISM                   
1 57800U 23137A   24109.23842444  .00010361  00000+0  79930-3 0  9994
2 57800  31.0045  33.9977 0010180 332.7962  27.2140 15.00333610 33593
